Time,TemperatureF,DewpointF,PressureIn,WindDirection,WindDirectionDegrees,WindSpeedMPH,WindSpeedGustMPH,Humidity,HourlyPrecipIn,Conditions,Clouds,dailyrainin,SoftwareType,DateUTC
2013-08-08 00:01:00,61.3,55.1,29.97,NNE,16,0.0,0.0,80,0.00,,CLR,0.00,VWS V14.01,2013-08-08 05:01:00,
2013-08-08 00:06:00,61.1,55.2,29.98,NNE,16,0.0,0.0,81,0.00,,CLR,0.00,VWS V14.01,2013-08-08 05:06:00,
2013-08-08 00:11:00,60.9,55.0,29.97,NNE,16,0.0,0.0,81,0.00,,CLR,0.00,VWS V14.01,2013-08-08 05:11:00,
2013-08-08 00:16:00,60.8,55.3,29.98,NNE,16,0.0,0.0,82,0.00,,CLR,0.00,VWS V14.01,2013-08-08 05:16:00,
2013-08-08 00:21:00,60.7,55.2,29.97,NNE,16,0.0,0.0,82,0.00,,CLR,0.00,VWS V14.01,2013-08-08 05:21:00,
2013-08-08 00:26:00,60.7,55.2,29.98,NNE,16,0.0,0.0,82,0.00,,CLR,0.00,VWS V14.01,2013-08-08 05:26:00,
2013-08-08 00:31:00,60.6,55.1,29.97,NNE,16,0.0,0.0,82,0.00,,CLR,0.00,VWS V14.01,2013-08-08 05:31:00,
2013-08-08 00:36:00,60.4,54.9,29.97,NNE,16,0.0,0.0,82,0.00,,CLR,0.00,VWS V14.01,2013-08-08 05:36:00,
2013-08-08 00:41:00,60.2,55.0,29.97,NNE,16,0.0,0.0,83,0.00,,CLR,0.00,VWS V14.01,2013-08-08 05:41:00,
2013-08-08 00:46:00,60.0,54.8,29.97,NNE,16,0.0,0.0,83,0.00,,CLR,0.00,VWS V14.01,2013-08-08 05:46:00,
2013-08-08 00:51:00,59.8,55.0,29.97,NNE,16,0.0,0.0,84,0.00,,CLR,0.00,VWS V14.01,2013-08-08 05:51:00,
2013-08-08 00:56:00,59.5,54.7,29.97,NNE,16,0.0,0.0,84,0.00,,CLR,0.00,VWS V14.01,2013-08-08 05:56:00,
2013-08-08 01:01:00,59.2,54.7,29.97,NNE,16,0.0,0.0,85,0.00,,CLR,0.00,VWS V14.01,2013-08-08 06:01:00,
2013-08-08 01:06:00,58.9,54.4,29.97,NNE,16,0.0,0.0,85,0.00,,CLR,0.00,VWS V14.01,2013-08-08 06:06:00,
2013-08-08 01:11:00,58.7,54.2,29.97,NNE,16,0.0,0.0,85,0.00,,CLR,0.00,VWS V14.01,2013-08-08 06:11:00,
2013-08-08 01:16:00,58.6,54.4,29.97,NNE,16,0.0,0.0,86,0.00,,CLR,0.00,VWS V14.01,2013-08-08 06:16:00,
2013-08-08 01:21:00,58.6,54.4,29.97,NNE,16,0.0,0.0,86,0.00,,CLR,0.00,VWS V14.01,2013-08-08 06:21:00,
2013-08-08 01:26:00,58.7,54.5,29.98,NNE,16,0.0,0.0,86,0.00,,CLR,0.00,VWS V14.01,2013-08-08 06:26:00,
2013-08-08 01:31:00,58.7,54.5,29.98,NNE,16,0.0,0.0,86,0.00,,CLR,0.00,VWS V14.01,2013-08-08 06:31:00,
2013-08-08 01:36:00,58.8,54.6,29.98,NNE,16,0.0,0.0,86,0.00,,CLR,0.00,VWS V14.01,2013-08-08 06:36:00,
2013-08-08 01:41:00,58.7,54.2,29.98,NNE,16,0.0,0.0,85,0.00,,CLR,0.00,VWS V14.01,2013-08-08 06:41:00,
2013-08-08 01:46:00,58.6,54.4,29.98,NNE,16,0.0,0.0,86,0.00,,CLR,0.00,VWS V14.01,2013-08-08 06:46:00,
2013-08-08 01:51:00,58.5,54.3,29.99,NNE,16,0.0,0.0,86,0.00,,CLR,0.00,VWS V14.01,2013-08-08 06:51:00,
2013-08-08 01:56:00,58.3,54.1,29.99,NNE,16,0.0,0.0,86,0.00,,CLR,0.00,VWS V14.01,2013-08-08 06:56:00,
2013-08-08 02:01:00,58.2,54.0,29.99,NNE,16,0.0,0.0,86,0.00,,CLR,0.00,VWS V14.01,2013-08-08 07:01:00,
2013-08-08 02:06:00,58.3,54.1,29.99,NNE,16,0.0,0.0,86,0.00,,CLR,0.00,VWS V14.01,2013-08-08 07:06:00,
2013-08-08 02:11:00,58.4,54.2,29.99,NNE,16,0.0,0.0,86,0.00,,CLR,0.00,VWS V14.01,2013-08-08 07:11:00,
2013-08-08 02:16:00,58.4,53.9,29.99,NNE,16,0.0,0.0,85,0.00,,CLR,0.00,VWS V14.01,2013-08-08 07:16:00,
2013-08-08 02:21:00,58.4,53.9,29.98,NNE,16,0.0,0.0,85,0.00,,CLR,0.00,VWS V14.01,2013-08-08 07:21:00,
2013-08-08 02:26:00,58.4,53.9,29.98,NNE,16,0.0,0.0,85,0.00,,CLR,0.00,VWS V14.01,2013-08-08 07:26:00,
2013-08-08 02:31:00,58.5,54.0,29.98,NNE,16,0.0,0.0,85,0.00,,CLR,0.00,VWS V14.01,2013-08-08 07:31:00,
2013-08-08 02:36:00,58.5,54.0,29.98,NNE,16,0.0,0.0,85,0.00,,CLR,0.00,VWS V14.01,2013-08-08 07:36:00,
2013-08-08 02:41:00,58.7,53.9,29.98,NNE,16,0.0,0.0,84,0.00,,CLR,0.00,VWS V14.01,2013-08-08 07:41:00,
2013-08-08 02:46:00,58.8,54.0,29.97,NNE,16,0.0,0.0,84,0.00,,CLR,0.00,VWS V14.01,2013-08-08 07:46:00,
2013-08-08 02:51:00,58.8,54.0,29.97,NNE,16,0.0,0.0,84,0.00,,CLR,0.00,VWS V14.01,2013-08-08 07:51:00,
2013-08-08 02:56:00,58.7,53.9,29.97,NNE,16,0.0,0.0,84,0.00,,CLR,0.00,VWS V14.01,2013-08-08 07:56:00,
2013-08-08 03:01:00,58.4,53.9,29.97,NNE,16,0.0,0.0,85,0.00,,CLR,0.00,VWS V14.01,2013-08-08 08:01:00,
2013-08-08 03:06:00,58.3,54.1,29.97,NNE,16,0.0,0.0,86,0.00,,CLR,0.00,VWS V14.01,2013-08-08 08:06:00,
2013-08-08 03:11:00,58.2,54.0,29.97,NNE,16,0.0,0.0,86,0.00,,CLR,0.00,VWS V14.01,2013-08-08 08:11:00,
2013-08-08 03:16:00,58.2,54.4,29.96,NNE,16,0.0,0.0,87,0.00,,CLR,0.00,VWS V14.01,2013-08-08 08:16:00,
2013-08-08 03:21:00,58.1,54.3,29.97,NNE,16,0.0,0.0,87,0.00,,CLR,0.00,VWS V14.01,2013-08-08 08:21:00,
2013-08-08 03:26:00,57.9,54.1,29.96,NNE,16,0.0,0.0,87,0.00,,CLR,0.00,VWS V14.01,2013-08-08 08:26:00,
2013-08-08 03:31:00,58.0,54.5,29.95,ENE,78,0.0,0.0,88,0.00,,CLR,0.00,VWS V14.01,2013-08-08 08:31:00,
2013-08-08 03:36:00,58.3,54.5,29.95,ENE,76,0.0,0.0,87,0.00,,CLR,0.00,VWS V14.01,2013-08-08 08:36:00,
2013-08-08 03:41:00,58.2,54.4,29.95,ENE,76,0.0,0.0,87,0.00,,CLR,0.00,VWS V14.01,2013-08-08 08:41:00,
2013-08-08 03:46:00,58.2,54.4,29.95,ENE,76,0.0,0.0,87,0.00,,CLR,0.00,VWS V14.01,2013-08-08 08:46:00,
2013-08-08 03:51:00,58.3,54.1,29.94,East,96,0.0,2.0,86,0.00,,CLR,0.00,VWS V14.01,2013-08-08 08:51:00,
2013-08-08 03:56:00,58.3,54.5,29.94,East,91,0.0,3.0,87,0.00,,CLR,0.00,VWS V14.01,2013-08-08 08:56:00,
2013-08-08 04:01:00,58.3,54.5,29.94,East,101,0.0,0.0,87,0.00,,CLR,0.00,VWS V14.01,2013-08-08 09:01:00,
2013-08-08 04:06:00,58.4,54.2,29.94,East,88,0.0,1.0,86,0.00,,CLR,0.00,VWS V14.01,2013-08-08 09:06:00,
2013-08-08 04:11:00,58.5,54.3,29.95,ENE,64,0.0,2.0,86,0.00,,CLR,0.00,VWS V14.01,2013-08-08 09:11:00,
2013-08-08 04:16:00,58.4,54.2,29.95,ENE,64,0.0,2.0,86,0.00,,CLR,0.00,VWS V14.01,2013-08-08 09:16:00,
2013-08-08 04:21:00,58.3,54.1,29.94,ENE,65,0.0,2.0,86,0.00,,CLR,0.00,VWS V14.01,2013-08-08 09:21:00,
2013-08-08 04:26:00,58.1,54.3,29.94,ENE,64,0.0,2.0,87,0.00,,CLR,0.00,VWS V14.01,2013-08-08 09:26:00,
2013-08-08 04:31:00,57.8,54.0,29.94,ENE,64,0.0,0.0,87,0.00,,CLR,0.00,VWS V14.01,2013-08-08 09:31:00,
2013-08-08 04:36:00,57.5,53.7,29.95,ENE,65,0.0,0.0,87,0.00,,CLR,0.00,VWS V14.01,2013-08-08 09:36:00,
2013-08-08 04:41:00,57.4,53.9,29.95,ENE,65,0.0,0.0,88,0.00,,CLR,0.00,VWS V14.01,2013-08-08 09:41:00,
2013-08-08 04:46:00,57.4,53.9,29.95,ENE,64,0.0,1.0,88,0.00,,CLR,0.00,VWS V14.01,2013-08-08 09:46:00,
2013-08-08 04:51:00,57.2,53.7,29.95,ENE,63,0.0,1.0,88,0.00,,CLR,0.00,VWS V14.01,2013-08-08 09:51:00,
2013-08-08 04:56:00,57.2,53.7,29.95,ENE,63,0.0,1.0,88,0.00,,CLR,0.00,VWS V14.01,2013-08-08 09:56:00,
2013-08-08 05:01:00,57.1,53.6,29.95,ENE,63,0.0,0.0,88,0.00,,CLR,0.00,VWS V14.01,2013-08-08 10:01:00,
2013-08-08 05:06:00,57.0,53.8,29.95,ENE,65,0.0,0.0,89,0.00,,CLR,0.00,VWS V14.01,2013-08-08 10:06:00,
2013-08-08 05:11:00,56.9,53.7,29.95,ENE,63,0.0,0.0,89,0.00,,CLR,0.00,VWS V14.01,2013-08-08 10:11:00,
2013-08-08 05:16:00,56.9,53.7,29.95,ENE,63,0.0,0.0,89,0.00,,CLR,0.00,VWS V14.01,2013-08-08 10:16:00,
2013-08-08 05:21:00,56.7,53.5,29.95,ENE,64,0.0,0.0,89,0.00,,CLR,0.00,VWS V14.01,2013-08-08 10:21:00,
2013-08-08 05:26:00,56.7,53.5,29.95,ENE,63,0.0,0.0,89,0.00,,CLR,0.00,VWS V14.01,2013-08-08 10:26:00,
2013-08-08 05:31:00,56.6,53.7,29.95,ENE,63,0.0,0.0,90,0.00,,CLR,0.00,VWS V14.01,2013-08-08 10:31:00,
2013-08-08 05:36:00,56.5,53.6,29.94,ENE,65,0.0,0.0,90,0.00,,CLR,0.00,VWS V14.01,2013-08-08 10:36:00,
2013-08-08 05:41:00,56.3,53.4,29.94,ENE,64,0.0,0.0,90,0.00,,CLR,0.00,VWS V14.01,2013-08-08 10:41:00,
2013-08-08 05:46:00,56.1,53.5,29.93,ENE,64,0.0,0.0,91,0.00,,CLR,0.00,VWS V14.01,2013-08-08 10:46:00,
2013-08-08 05:51:00,56.0,53.4,29.93,ENE,63,0.0,0.0,91,0.00,,CLR,0.00,VWS V14.01,2013-08-08 10:51:00,
2013-08-08 05:56:00,55.8,53.2,29.94,ENE,64,0.0,0.0,91,0.00,,CLR,0.00,VWS V14.01,2013-08-08 10:56:00,
2013-08-08 06:01:00,55.9,53.3,29.94,ENE,64,0.0,0.0,91,0.00,,CLR,0.00,VWS V14.01,2013-08-08 11:01:00,
2013-08-08 06:06:00,55.8,53.2,29.94,ENE,63,0.0,0.0,91,0.00,,CLR,0.00,VWS V14.01,2013-08-08 11:06:00,
2013-08-08 06:11:00,55.9,53.3,29.94,ENE,63,0.0,0.0,91,0.00,,CLR,0.00,VWS V14.01,2013-08-08 11:11:00,
2013-08-08 06:16:00,56.0,53.4,29.95,ENE,64,0.0,0.0,91,0.00,,CLR,0.00,VWS V14.01,2013-08-08 11:16:00,
2013-08-08 06:21:00,56.1,53.5,29.95,ENE,64,0.0,0.0,91,0.00,,CLR,0.00,VWS V14.01,2013-08-08 11:21:00,
2013-08-08 06:26:00,56.1,53.5,29.95,ENE,63,0.0,0.0,91,0.00,,CLR,0.00,VWS V14.01,2013-08-08 11:26:00,
2013-08-08 06:31:00,56.2,53.6,29.96,ENE,64,0.0,0.0,91,0.00,,CLR,0.00,VWS V14.01,2013-08-08 11:31:00,
2013-08-08 06:36:00,56.2,53.3,29.96,ENE,63,0.0,0.0,90,0.00,,CLR,0.00,VWS V14.01,2013-08-08 11:36:00,
2013-08-08 06:41:00,56.3,53.4,29.96,ENE,64,0.0,0.0,90,0.00,,CLR,0.00,VWS V14.01,2013-08-08 11:41:00,
2013-08-08 06:46:00,56.7,53.8,29.97,ENE,63,0.0,0.0,90,0.00,,CLR,0.00,VWS V14.01,2013-08-08 11:46:00,
2013-08-08 06:51:00,57.2,54.0,29.97,ENE,65,0.0,0.0,89,0.00,,CLR,0.00,VWS V14.01,2013-08-08 11:51:00,
2013-08-08 06:56:00,57.5,54.0,29.97,ENE,70,0.0,2.0,88,0.00,,CLR,0.00,VWS V14.01,2013-08-08 11:56:00,
2013-08-08 07:01:00,57.8,54.0,29.97,East,98,1.0,1.0,87,0.00,,CLR,0.00,VWS V14.01,2013-08-08 12:01:00,
2013-08-08 07:06:00,58.2,53.7,29.97,ESE,111,2.0,5.0,85,0.00,,CLR,0.00,VWS V14.01,2013-08-08 12:06:00,
2013-08-08 07:11:00,58.5,54.0,29.98,East,101,0.0,5.0,85,0.00,,CLR,0.00,VWS V14.01,2013-08-08 12:11:00,
2013-08-08 07:16:00,58.8,54.3,29.98,ESE,106,0.0,5.0,85,0.00,,CLR,0.00,VWS V14.01,2013-08-08 12:16:00,
2013-08-08 07:21:00,59.2,55.0,29.98,ENE,63,0.0,5.0,86,0.00,,CLR,0.00,VWS V14.01,2013-08-08 12:21:00,
2013-08-08 07:26:00,59.5,54.7,29.98,ENE,71,0.0,5.0,84,0.00,,CLR,0.00,VWS V14.01,2013-08-08 12:26:00,
2013-08-08 07:30:00,59.7,54.2,29.98,ESE,115,2.0,2.0,82,0.00,,CLR,0.00,VWS V14.01,2013-08-08 12:30:00,
2013-08-08 07:35:00,60.0,54.5,29.98,ESE,108,2.0,4.0,82,0.00,,CLR,0.00,VWS V14.01,2013-08-08 12:35:00,
2013-08-08 07:40:00,60.3,54.5,29.98,ESE,110,3.0,5.0,81,0.00,,CLR,0.00,VWS V14.01,2013-08-08 12:40:00,
2013-08-08 07:45:00,60.5,54.3,29.99,ESE,109,3.0,7.0,80,0.00,,CLR,0.00,VWS V14.01,2013-08-08 12:45:00,
2013-08-08 07:50:00,60.7,54.8,29.99,ESE,111,3.0,7.0,81,0.00,,CLR,0.00,VWS V14.01,2013-08-08 12:50:00,
2013-08-08 07:55:00,60.9,55.0,29.99,ESE,122,4.0,7.0,81,0.00,,CLR,0.00,VWS V14.01,2013-08-08 12:55:00,
2013-08-08 08:00:00,61.3,55.1,29.99,East,98,5.0,7.0,80,0.00,,CLR,0.00,VWS V14.01,2013-08-08 13:00:00,
2013-08-08 08:05:00,61.6,55.7,29.99,SE,125,6.0,7.0,81,0.00,,CLR,0.00,VWS V14.01,2013-08-08 13:05:00,
2013-08-08 08:10:00,62.1,55.9,29.99,ESE,116,5.0,7.0,80,0.00,,CLR,0.00,VWS V14.01,2013-08-08 13:10:00,
2013-08-08 08:15:00,62.6,55.7,29.98,ESE,110,7.0,8.0,78,0.00,,CLR,0.00,VWS V14.01,2013-08-08 13:15:00,
2013-08-08 08:20:00,63.0,56.7,29.97,SE,132,5.0,8.0,80,0.00,,CLR,0.00,VWS V14.01,2013-08-08 13:20:00,
2013-08-08 08:25:00,63.4,57.1,29.97,ESE,113,6.0,8.0,80,0.00,,CLR,0.00,VWS V14.01,2013-08-08 13:25:00,
2013-08-08 08:30:00,63.8,56.8,29.97,SE,136,7.0,9.0,78,0.00,,CLR,0.00,VWS V14.01,2013-08-08 13:30:00,
2013-08-08 08:35:00,64.0,55.9,29.97,ESE,109,11.0,13.0,75,0.00,,CLR,0.00,VWS V14.01,2013-08-08 13:35:00,
2013-08-08 08:40:00,64.3,57.0,29.97,SE,134,6.0,13.0,77,0.00,,CLR,0.00,VWS V14.01,2013-08-08 13:40:00,
2013-08-08 08:45:00,64.5,57.1,29.97,SE,138,8.0,13.0,77,0.00,,CLR,0.00,VWS V14.01,2013-08-08 13:45:00,
2013-08-08 08:50:00,64.7,57.3,29.97,ESE,122,7.0,13.0,77,0.00,,CLR,0.00,VWS V14.01,2013-08-08 13:50:00,
2013-08-08 08:55:00,64.7,56.6,29.97,SE,134,7.0,13.0,75,0.00,,CLR,0.00,VWS V14.01,2013-08-08 13:55:00,
2013-08-08 09:00:00,64.8,56.7,29.97,ESE,112,8.0,13.0,75,0.00,,CLR,0.00,VWS V14.01,2013-08-08 14:00:00,
2013-08-08 09:05:00,65.3,57.5,29.98,SE,143,5.0,9.0,76,0.00,,CLR,0.00,VWS V14.01,2013-08-08 14:05:00,
2013-08-08 09:10:00,65.6,57.5,29.98,SSE,151,6.0,9.0,75,0.00,,CLR,0.00,VWS V14.01,2013-08-08 14:10:00,
2013-08-08 09:15:00,65.8,57.3,29.97,SE,141,7.0,9.0,74,0.00,,CLR,0.00,VWS V14.01,2013-08-08 14:15:00,
2013-08-08 09:20:00,66.4,57.9,29.97,SE,134,7.0,11.0,74,0.00,,CLR,0.00,VWS V14.01,2013-08-08 14:20:00,
2013-08-08 09:25:00,66.6,58.1,29.97,SE,128,7.0,11.0,74,0.00,,CLR,0.00,VWS V14.01,2013-08-08 14:25:00,
2013-08-08 09:30:00,66.5,58.0,29.97,ESE,122,8.0,11.0,74,0.00,,CLR,0.00,VWS V14.01,2013-08-08 14:30:00,
2013-08-08 09:35:00,66.7,58.2,29.97,SE,144,6.0,9.0,74,0.00,,CLR,0.00,VWS V14.01,2013-08-08 14:35:00,
2013-08-08 09:40:00,67.1,57.8,29.98,SE,124,5.0,9.0,72,0.00,,CLR,0.00,VWS V14.01,2013-08-08 14:40:00,
2013-08-08 09:45:00,66.9,58.3,29.98,SE,133,4.0,9.0,74,0.00,,CLR,0.00,VWS V14.01,2013-08-08 14:45:00,
2013-08-08 09:50:00,66.9,59.1,29.98,SE,145,2.0,9.0,76,0.00,,CLR,0.00,VWS V14.01,2013-08-08 14:50:00,
2013-08-08 09:55:00,67.1,59.3,29.98,SE,135,3.0,9.0,76,0.00,,CLR,0.00,VWS V14.01,2013-08-08 14:55:00,
2013-08-08 10:00:00,67.1,58.9,29.98,SSE,159,4.0,9.0,75,0.00,,CLR,0.00,VWS V14.01,2013-08-08 15:00:00,
2013-08-08 10:05:00,67.4,58.8,29.98,SSE,148,5.0,6.0,74,0.00,,FEW120,0.00,VWS V14.01,2013-08-08 15:05:00,
2013-08-08 10:10:00,67.4,57.7,29.98,SE,146,3.0,6.0,71,0.00,,FEW120,0.00,VWS V14.01,2013-08-08 15:10:00,
2013-08-08 10:15:00,67.7,58.0,29.99,South,177,1.0,6.0,71,0.00,,FEW120,0.00,VWS V14.01,2013-08-08 15:15:00,
2013-08-08 10:20:00,68.1,58.0,29.99,ESE,105,1.0,6.0,70,0.00,,FEW120,0.00,VWS V14.01,2013-08-08 15:20:00,
2013-08-08 10:25:00,68.1,58.3,29.99,ESE,118,0.0,6.0,71,0.00,,FEW120,0.00,VWS V14.01,2013-08-08 15:25:00,
2013-08-08 10:30:00,68.1,58.3,30.00,SW,215,1.0,6.0,71,0.00,,FEW120,0.00,VWS V14.01,2013-08-08 15:30:00,
2013-08-08 10:35:00,68.0,57.9,30.00,ESE,107,0.0,2.0,70,0.00,,FEW120,0.00,VWS V14.01,2013-08-08 15:35:00,
2013-08-08 10:40:00,67.9,58.2,30.00,East,96,0.0,3.0,71,0.00,,FEW120,0.00,VWS V14.01,2013-08-08 15:40:00,
2013-08-08 10:45:00,67.8,59.2,30.01,WSW,242,0.0,3.0,74,0.00,,FEW120,0.00,VWS V14.01,2013-08-08 15:45:00,
2013-08-08 10:50:00,67.6,57.9,30.01,West,280,0.0,3.0,71,0.00,,FEW120,0.00,VWS V14.01,2013-08-08 15:50:00,
2013-08-08 10:55:00,67.5,59.3,30.01,West,278,0.0,3.0,75,0.00,,FEW120,0.00,VWS V14.01,2013-08-08 15:55:00,
2013-08-08 11:00:00,67.3,58.4,30.01,West,281,0.0,3.0,73,0.00,,FEW120,0.00,VWS V14.01,2013-08-08 16:00:00,
2013-08-08 11:05:00,67.2,57.9,30.01,West,281,0.0,0.0,72,0.00,,OVC110,0.00,VWS V14.01,2013-08-08 16:05:00,
2013-08-08 11:10:00,67.3,58.0,30.01,WSW,248,0.0,1.0,72,0.00,,OVC110,0.00,VWS V14.01,2013-08-08 16:10:00,
2013-08-08 11:15:00,67.5,58.5,30.01,WSW,248,0.0,1.0,73,0.00,,OVC110,0.00,VWS V14.01,2013-08-08 16:15:00,
2013-08-08 11:20:00,67.5,59.3,30.01,WSW,248,0.0,1.0,75,0.00,,OVC110,0.00,VWS V14.01,2013-08-08 16:20:00,
2013-08-08 11:25:00,67.7,59.5,30.01,WSW,248,0.0,1.0,75,0.00,,OVC110,0.00,VWS V14.01,2013-08-08 16:25:00,
2013-08-08 11:30:00,67.6,59.4,30.01,WSW,248,0.0,1.0,75,0.00,,OVC110,0.00,VWS V14.01,2013-08-08 16:30:00,
2013-08-08 11:35:00,67.6,59.8,30.01,WSW,248,0.0,0.0,76,0.00,,OVC110,0.00,VWS V14.01,2013-08-08 16:35:00,
2013-08-08 11:40:00,67.6,60.1,30.01,WSW,248,0.0,0.0,77,0.00,,OVC110,0.00,VWS V14.01,2013-08-08 16:40:00,
2013-08-08 11:45:00,67.7,59.9,30.01,NNE,20,0.0,1.0,76,0.00,,OVC110,0.00,VWS V14.01,2013-08-08 16:45:00,
2013-08-08 11:50:00,67.5,59.7,30.01,NNE,19,0.0,1.0,76,0.00,,OVC110,0.00,VWS V14.01,2013-08-08 16:50:00,
2013-08-08 11:55:00,67.8,60.3,30.01,NNE,16,0.0,1.0,77,0.00,,OVC110,0.00,VWS V14.01,2013-08-08 16:55:00,
2013-08-08 12:00:00,68.2,60.3,30.01,North,4,1.0,2.0,76,0.00,,OVC090,0.00,VWS V14.01,2013-08-08 17:00:00,
2013-08-08 12:05:00,68.4,60.2,30.01,WNW,290,0.0,3.0,75,0.00,,OVC090,0.00,VWS V14.01,2013-08-08 17:05:00,
2013-08-08 12:10:00,68.4,59.8,30.01,North,11,1.0,3.0,74,0.00,,OVC090,0.00,VWS V14.01,2013-08-08 17:10:00,
2013-08-08 12:15:00,68.2,60.3,30.00,NNE,13,0.0,3.0,76,0.00,,OVC090,0.00,VWS V14.01,2013-08-08 17:15:00,
2013-08-08 12:20:00,68.0,59.8,30.00,NNW,347,0.0,3.0,75,0.00,,OVC090,0.00,VWS V14.01,2013-08-08 17:20:00,
2013-08-08 12:25:00,67.8,60.0,30.00,NNW,341,0.0,3.0,76,0.00,,OVC090,0.00,VWS V14.01,2013-08-08 17:25:00,
2013-08-08 12:30:00,67.5,60.0,30.00,North,7,0.0,3.0,77,0.00,,OVC090,0.00,VWS V14.01,2013-08-08 17:30:00,
2013-08-08 12:35:00,67.3,60.2,30.00,NNE,15,1.0,1.0,78,0.00,,OVC090,0.00,VWS V14.01,2013-08-08 17:35:00,
2013-08-08 12:40:00,67.1,60.4,30.00,North,354,0.0,2.0,79,0.00,,OVC090,0.00,VWS V14.01,2013-08-08 17:40:00,
2013-08-08 12:45:00,67.1,61.1,30.00,North,354,0.0,2.0,81,0.00,,OVC090,0.00,VWS V14.01,2013-08-08 17:45:00,
2013-08-08 12:50:00,67.3,60.9,30.00,North,350,0.0,2.0,80,0.00,,OVC090,0.00,VWS V14.01,2013-08-08 17:50:00,
2013-08-08 12:55:00,67.3,59.8,30.00,NNE,16,0.0,3.0,77,0.00,,OVC090,0.00,VWS V14.01,2013-08-08 17:55:00,
2013-08-08 13:00:00,67.1,58.5,30.00,NNW,344,0.0,3.0,74,0.00,,OVC075,0.00,VWS V14.01,2013-08-08 18:00:00,
2013-08-08 13:05:00,67.2,60.1,30.00,NNW,345,0.0,1.0,78,0.00,,OVC075,0.00,VWS V14.01,2013-08-08 18:05:00,
2013-08-08 13:10:00,67.3,60.2,30.00,NNW,343,0.0,1.0,78,0.00,,OVC075,0.00,VWS V14.01,2013-08-08 18:10:00,
2013-08-08 13:15:00,67.5,59.7,29.99,NNE,33,0.0,1.0,76,0.00,,OVC075,0.00,VWS V14.01,2013-08-08 18:15:00,
2013-08-08 13:20:00,67.6,59.8,29.99,NNE,32,0.0,1.0,76,0.00,,OVC075,0.00,VWS V14.01,2013-08-08 18:20:00,
2013-08-08 13:25:00,67.9,58.9,29.99,North,7,0.0,2.0,73,0.00,,OVC075,0.00,VWS V14.01,2013-08-08 18:25:00,
2013-08-08 13:30:00,68.2,59.6,29.98,North,7,0.0,2.0,74,0.00,,OVC075,0.00,VWS V14.01,2013-08-08 18:30:00,
2013-08-08 13:35:00,69.0,60.4,29.98,NNW,347,0.0,0.0,74,0.00,,OVC075,0.00,VWS V14.01,2013-08-08 18:35:00,
2013-08-08 13:40:00,69.9,59.3,29.98,ESE,105,1.0,4.0,69,0.00,,OVC075,0.00,VWS V14.01,2013-08-08 18:40:00,
2013-08-08 13:45:00,70.4,59.8,29.97,ESE,117,2.0,4.0,69,0.00,,OVC075,0.00,VWS V14.01,2013-08-08 18:45:00,
2013-08-08 13:50:00,71.0,59.5,29.97,ESE,117,0.0,4.0,67,0.00,,OVC075,0.00,VWS V14.01,2013-08-08 18:50:00,
2013-08-08 13:51:00,71.1,59.6,29.97,SE,137,1.0,4.0,67,0.00,,OVC075,0.00,VWS V14.01,2013-08-08 18:51:00,
2013-08-08 13:56:00,71.0,59.1,29.97,ESE,103,0.0,5.0,66,0.00,,OVC075,0.00,VWS V14.01,2013-08-08 18:56:00,
2013-08-08 14:00:00,71.6,58.8,29.97,SSE,153,2.0,2.0,64,0.00,,OVC100,0.00,VWS V14.01,2013-08-08 19:00:00,
2013-08-08 14:05:00,71.8,58.5,29.97,SSW,195,2.0,5.0,63,0.00,,OVC100,0.00,VWS V14.01,2013-08-08 19:05:00,
2013-08-08 14:10:00,72.2,56.6,29.97,SSE,155,3.0,5.0,58,0.00,,OVC100,0.00,VWS V14.01,2013-08-08 19:10:00,
2013-08-08 14:15:00,72.6,57.5,29.96,SW,222,3.0,6.0,59,0.00,,OVC100,0.00,VWS V14.01,2013-08-08 19:15:00,
2013-08-08 14:20:00,73.0,56.9,29.96,SSW,194,1.0,6.0,57,0.00,,OVC100,0.00,VWS V14.01,2013-08-08 19:20:00,
2013-08-08 14:25:00,73.6,57.4,29.96,SW,215,2.0,6.0,57,0.00,,OVC100,0.00,VWS V14.01,2013-08-08 19:25:00,
2013-08-08 14:30:00,74.0,55.8,29.96,SW,227,3.0,3.0,53,0.00,,OVC100,0.00,VWS V14.01,2013-08-08 19:30:00,
2013-08-08 14:35:00,74.3,56.6,29.96,SSW,204,1.0,5.0,54,0.00,,OVC100,0.00,VWS V14.01,2013-08-08 19:35:00,
2013-08-08 14:40:00,74.1,54.8,29.96,SW,235,5.0,7.0,51,0.00,,OVC100,0.00,VWS V14.01,2013-08-08 19:40:00,
2013-08-08 14:46:00,73.8,56.6,29.95,South,191,4.0,7.0,55,0.00,,OVC100,0.00,VWS V14.01,2013-08-08 19:46:00,
2013-08-08 14:51:00,73.7,58.0,29.96,West,266,2.0,7.0,58,0.00,,OVC100,0.00,VWS V14.01,2013-08-08 19:51:00,
2013-08-08 14:56:00,74.1,57.4,29.96,SSE,148,3.0,7.0,56,0.00,,OVC100,0.00,VWS V14.01,2013-08-08 19:56:00,
2013-08-08 15:00:00,74.9,58.7,29.96,West,269,1.0,1.0,57,0.00,,SCT065,0.00,VWS V14.01,2013-08-08 20:00:00,
2013-08-08 15:05:00,74.8,59.0,29.96,WSW,239,1.0,6.0,58,0.00,,SCT065,0.00,VWS V14.01,2013-08-08 20:05:00,
2013-08-08 15:10:00,75.0,57.2,29.96,SW,233,4.0,6.0,54,0.00,,SCT065,0.00,VWS V14.01,2013-08-08 20:10:00,
2013-08-08 15:15:00,75.3,57.5,29.96,WNW,293,0.0,6.0,54,0.00,,SCT065,0.00,VWS V14.01,2013-08-08 20:15:00,
2013-08-08 15:20:00,75.4,59.6,29.96,West,281,4.0,6.0,58,0.00,,SCT065,0.00,VWS V14.01,2013-08-08 20:20:00,
2013-08-08 15:25:00,75.3,60.0,29.96,WSW,252,3.0,6.0,59,0.00,,SCT065,0.00,VWS V14.01,2013-08-08 20:25:00,
2013-08-08 15:30:00,75.1,58.3,29.96,SW,225,2.0,2.0,56,0.00,,SCT065,0.00,VWS V14.01,2013-08-08 20:30:00,
2013-08-08 15:35:00,75.0,59.7,29.96,West,271,1.0,4.0,59,0.00,,SCT065,0.00,VWS V14.01,2013-08-08 20:35:00,
2013-08-08 15:40:00,74.6,58.9,29.96,West,278,3.0,6.0,58,0.00,,SCT065,0.00,VWS V14.01,2013-08-08 20:40:00,
2013-08-08 15:45:00,74.4,59.6,29.96,West,270,1.0,6.0,60,0.00,,SCT065,0.00,VWS V14.01,2013-08-08 20:45:00,
2013-08-08 15:50:00,74.4,59.2,29.95,WSW,249,1.0,6.0,59,0.00,,SCT065,0.00,VWS V14.01,2013-08-08 20:50:00,
2013-08-08 15:55:00,74.5,59.7,29.95,WSW,256,2.0,6.0,60,0.00,,SCT065,0.00,VWS V14.01,2013-08-08 20:55:00,
2013-08-08 16:00:00,74.6,59.8,29.95,WNW,302,0.0,6.0,60,0.00,,OVC060,0.00,VWS V14.01,2013-08-08 21:00:00,
2013-08-08 16:06:00,75.5,60.2,29.95,West,267,3.0,5.0,59,0.00,,OVC060,0.00,VWS V14.01,2013-08-08 21:06:00,
2013-08-08 16:11:00,75.3,61.4,29.96,NW,306,1.0,5.0,62,0.00,,OVC060,0.00,VWS V14.01,2013-08-08 21:11:00,
2013-08-08 16:16:00,75.1,61.2,29.96,NNE,32,1.0,5.0,62,0.00,,OVC060,0.00,VWS V14.01,2013-08-08 21:16:00,
2013-08-08 16:21:00,74.9,61.0,29.96,North,356,2.0,5.0,62,0.00,,OVC060,0.00,VWS V14.01,2013-08-08 21:21:00,
2013-08-08 16:26:00,75.0,61.1,29.96,North,5,1.0,5.0,62,0.00,,OVC060,0.00,VWS V14.01,2013-08-08 21:26:00,
2013-08-08 16:31:00,75.7,58.9,29.96,NNE,25,0.0,2.0,56,0.00,,OVC060,0.00,VWS V14.01,2013-08-08 21:31:00,
2013-08-08 16:36:00,75.5,59.2,29.96,NNE,13,0.0,2.0,57,0.00,,OVC060,0.00,VWS V14.01,2013-08-08 21:36:00,
2013-08-08 16:42:00,75.1,59.3,29.95,West,267,0.0,2.0,58,0.00,,OVC060,0.00,VWS V14.01,2013-08-08 21:42:00,
2013-08-08 16:47:00,75.0,60.2,29.96,West,270,1.0,2.0,60,0.00,,OVC060,0.00,VWS V14.01,2013-08-08 21:47:00,
2013-08-08 16:52:00,75.5,59.7,29.96,WSW,248,2.0,2.0,58,0.00,,OVC060,0.00,VWS V14.01,2013-08-08 21:52:00,
2013-08-08 16:57:00,75.7,59.9,29.95,WSW,253,0.0,4.0,58,0.00,,OVC060,0.00,VWS V14.01,2013-08-08 21:57:00,
2013-08-08 17:02:00,75.9,61.0,29.95,NW,304,0.0,1.0,60,0.00,,OVC060,0.00,VWS V14.01,2013-08-08 22:02:00,
2013-08-08 17:07:00,76.4,60.1,29.95,West,266,1.0,2.0,57,0.00,,OVC060,0.00,VWS V14.01,2013-08-08 22:07:00,
2013-08-08 17:12:00,77.2,61.3,29.95,West,266,1.0,2.0,58,0.00,,OVC060,0.00,VWS V14.01,2013-08-08 22:12:00,
2013-08-08 17:17:00,77.4,62.4,29.95,WSW,255,0.0,4.0,60,0.00,,OVC060,0.00,VWS V14.01,2013-08-08 22:17:00,
2013-08-08 17:22:00,77.0,58.6,29.95,North,6,0.0,4.0,53,0.00,,OVC060,0.00,VWS V14.01,2013-08-08 22:22:00,
2013-08-08 17:27:00,77.2,61.3,29.95,North,6,0.0,4.0,58,0.00,,OVC060,0.00,VWS V14.01,2013-08-08 22:27:00,
2013-08-08 17:32:00,77.9,59.4,29.95,West,264,0.0,2.0,53,0.00,,OVC060,0.00,VWS V14.01,2013-08-08 22:32:00,
2013-08-08 17:38:00,77.7,58.2,29.95,West,259,3.0,4.0,51,0.00,,OVC060,0.00,VWS V14.01,2013-08-08 22:38:00,
2013-08-08 17:43:00,77.2,58.8,29.95,NNE,32,0.0,4.0,53,0.00,,OVC060,0.00,VWS V14.01,2013-08-08 22:43:00,
2013-08-08 17:48:00,77.0,59.1,29.95,NE,51,0.0,4.0,54,0.00,,OVC060,0.00,VWS V14.01,2013-08-08 22:48:00,
2013-08-08 17:53:00,77.5,60.1,29.95,NE,37,1.0,4.0,55,0.00,,OVC060,0.00,VWS V14.01,2013-08-08 22:53:00,
2013-08-08 17:58:00,77.3,60.4,29.95,NNE,32,0.0,4.0,56,0.00,,OVC060,0.00,VWS V14.01,2013-08-08 22:58:00,
2013-08-08 18:03:00,77.2,57.7,29.95,West,267,3.0,3.0,51,0.00,,CLR,0.00,VWS V14.01,2013-08-08 23:03:00,
2013-08-08 18:08:00,76.8,57.3,29.95,West,271,0.0,4.0,51,0.00,,CLR,0.00,VWS V14.01,2013-08-08 23:08:00,
2013-08-08 18:13:00,77.4,59.0,29.95,SW,224,0.0,4.0,53,0.00,,CLR,0.00,VWS V14.01,2013-08-08 23:13:00,
2013-08-08 18:18:00,77.2,58.8,29.95,SW,233,1.0,4.0,53,0.00,,CLR,0.00,VWS V14.01,2013-08-08 23:18:00,
2013-08-08 18:23:00,76.9,59.0,29.95,SW,235,4.0,4.0,54,0.00,,CLR,0.00,VWS V14.01,2013-08-08 23:23:00,
2013-08-08 18:28:00,76.1,58.3,29.95,WSW,248,1.0,5.0,54,0.00,,CLR,0.00,VWS V14.01,2013-08-08 23:28:00,
2013-08-08 18:33:00,75.5,59.2,29.95,WSW,244,3.0,4.0,57,0.00,,CLR,0.00,VWS V14.01,2013-08-08 23:33:00,
2013-08-08 18:38:00,75.2,59.4,29.95,SW,235,1.0,4.0,58,0.00,,CLR,0.00,VWS V14.01,2013-08-08 23:38:00,
2013-08-08 18:44:00,75.0,59.2,29.95,WSW,253,2.0,4.0,58,0.00,,CLR,0.00,VWS V14.01,2013-08-08 23:44:00,
2013-08-08 18:49:00,75.1,60.3,29.95,WSW,252,2.0,4.0,60,0.00,,CLR,0.00,VWS V14.01,2013-08-08 23:49:00,
2013-08-08 18:54:00,74.9,59.6,29.95,West,280,0.0,4.0,59,0.00,,CLR,0.00,VWS V14.01,2013-08-08 23:54:00,
2013-08-08 18:59:00,74.9,58.7,29.95,West,273,2.0,4.0,57,0.00,,CLR,0.00,VWS V14.01,2013-08-08 23:59:00,
2013-08-08 19:04:00,74.9,58.7,29.95,West,270,1.0,3.0,57,0.00,,BKN065,0.00,VWS V14.01,2013-08-09 00:04:00,
2013-08-08 19:10:00,74.7,59.0,29.95,West,266,2.0,3.0,58,0.00,,BKN065,0.00,VWS V14.01,2013-08-09 00:10:00,
2013-08-08 19:15:00,74.0,59.7,29.95,West,278,0.0,3.0,61,0.00,,BKN065,0.00,VWS V14.01,2013-08-09 00:15:00,
2013-08-08 19:20:00,73.4,60.0,29.95,West,276,0.0,3.0,63,0.00,,BKN065,0.00,VWS V14.01,2013-08-09 00:20:00,
2013-08-08 19:25:00,72.8,59.5,29.95,West,270,0.0,3.0,63,0.00,,BKN065,0.00,VWS V14.01,2013-08-09 00:25:00,
2013-08-08 19:30:00,72.6,60.2,29.95,West,274,0.0,3.0,65,0.00,,BKN065,0.00,VWS V14.01,2013-08-09 00:30:00,
2013-08-08 19:35:00,72.4,60.4,29.95,West,273,0.0,0.0,66,0.00,,BKN065,0.00,VWS V14.01,2013-08-09 00:35:00,
2013-08-08 19:40:00,72.3,60.7,29.95,West,273,0.0,0.0,67,0.00,,BKN065,0.00,VWS V14.01,2013-08-09 00:40:00,
2013-08-08 19:45:00,72.2,61.1,29.94,West,273,0.0,0.0,68,0.00,,BKN065,0.00,VWS V14.01,2013-08-09 00:45:00,
2013-08-08 19:50:00,71.9,60.8,29.95,West,274,0.0,0.0,68,0.00,,BKN065,0.00,VWS V14.01,2013-08-09 00:50:00,
2013-08-08 19:55:00,71.6,60.9,29.94,West,273,0.0,0.0,69,0.00,,BKN065,0.00,VWS V14.01,2013-08-09 00:55:00,
2013-08-08 20:00:00,71.3,61.0,29.94,West,273,0.0,0.0,70,0.00,,SCT065,0.00,VWS V14.01,2013-08-09 01:00:00,
2013-08-08 20:05:00,71.3,61.8,29.94,West,272,0.0,0.0,72,0.00,,SCT065,0.00,VWS V14.01,2013-08-09 01:05:00,
2013-08-08 20:10:00,71.1,61.2,29.94,West,273,0.0,0.0,71,0.00,,SCT065,0.00,VWS V14.01,2013-08-09 01:10:00,
2013-08-08 20:15:00,70.9,60.6,29.94,WSW,248,0.0,1.0,70,0.00,,SCT065,0.00,VWS V14.01,2013-08-09 01:15:00,
2013-08-08 20:21:00,70.9,61.4,29.94,SW,229,0.0,1.0,72,0.00,,SCT065,0.00,VWS V14.01,2013-08-09 01:21:00,
2013-08-08 20:26:00,70.8,61.7,29.94,WSW,251,0.0,1.0,73,0.00,,SCT065,0.00,VWS V14.01,2013-08-09 01:26:00,
2013-08-08 20:31:00,70.6,61.9,29.94,WSW,252,0.0,0.0,74,0.00,,SCT065,0.00,VWS V14.01,2013-08-09 01:31:00,
2013-08-08 20:36:00,70.4,61.3,29.94,WSW,251,0.0,0.0,73,0.00,,SCT065,0.00,VWS V14.01,2013-08-09 01:36:00,
2013-08-08 20:41:00,70.3,61.6,29.94,WSW,252,0.0,0.0,74,0.00,,SCT065,0.00,VWS V14.01,2013-08-09 01:41:00,
2013-08-08 20:46:00,70.2,61.5,29.94,WSW,252,0.0,0.0,74,0.00,,SCT065,0.00,VWS V14.01,2013-08-09 01:46:00,
2013-08-08 20:51:00,70.1,61.0,29.94,WSW,252,0.0,0.0,73,0.00,,SCT065,0.00,VWS V14.01,2013-08-09 01:51:00,
2013-08-08 20:56:00,70.3,60.9,29.94,SW,232,0.0,1.0,72,0.00,,SCT065,0.00,VWS V14.01,2013-08-09 01:56:00,
2013-08-08 21:01:00,70.3,61.2,29.94,SSW,199,0.0,0.0,73,0.00,,OVC050,0.00,VWS V14.01,2013-08-09 02:01:00,
2013-08-08 21:06:00,70.4,61.7,29.94,SSE,148,0.0,1.0,74,0.00,,OVC050,0.00,VWS V14.01,2013-08-09 02:06:00,
2013-08-08 21:11:00,70.6,62.3,29.94,SSE,151,0.0,1.0,75,0.00,,OVC050,0.00,VWS V14.01,2013-08-09 02:11:00,
2013-08-08 21:17:00,70.6,60.8,29.94,SSE,152,0.0,2.0,71,0.00,,OVC050,0.00,VWS V14.01,2013-08-09 02:17:00,
2013-08-08 21:22:00,70.7,61.2,29.94,SSE,162,0.0,2.0,72,0.00,,OVC050,0.00,VWS V14.01,2013-08-09 02:22:00,
2013-08-08 21:27:00,70.8,62.1,29.94,SSE,160,0.0,2.0,74,0.00,,OVC050,0.00,VWS V14.01,2013-08-09 02:27:00,
2013-08-08 21:32:00,70.6,62.3,29.94,SE,128,0.0,0.0,75,0.00,,OVC050,0.00,VWS V14.01,2013-08-09 02:32:00,
2013-08-08 21:37:00,70.4,62.5,29.94,SE,128,0.0,0.0,76,0.00,,OVC050,0.00,VWS V14.01,2013-08-09 02:37:00,
2013-08-08 21:42:00,70.3,62.4,29.94,ESE,123,0.0,0.0,76,0.00,,OVC050,0.00,VWS V14.01,2013-08-09 02:42:00,
2013-08-08 21:47:00,70.2,62.3,29.94,ESE,123,0.0,0.0,76,0.00,,OVC050,0.00,VWS V14.01,2013-08-09 02:47:00,
2013-08-08 21:52:00,70.0,62.1,29.94,ESE,122,0.0,0.0,76,0.00,,OVC050,0.00,VWS V14.01,2013-08-09 02:52:00,
2013-08-08 21:57:00,70.0,62.5,29.94,ESE,122,0.0,0.0,77,0.00,,OVC050,0.00,VWS V14.01,2013-08-09 02:57:00,
2013-08-08 22:02:00,69.9,62.0,29.94,SE,135,0.0,1.0,76,0.00,,OVC055,0.00,VWS V14.01,2013-08-09 03:02:00,
2013-08-08 22:07:00,70.0,62.1,29.94,SSE,155,0.0,2.0,76,0.00,,OVC055,0.00,VWS V14.01,2013-08-09 03:07:00,
2013-08-08 22:12:00,69.9,62.0,29.94,SSE,162,0.0,2.0,76,0.00,,OVC055,0.00,VWS V14.01,2013-08-09 03:12:00,
2013-08-08 22:17:00,69.8,61.5,29.94,SSE,149,1.0,2.0,75,0.00,,OVC055,0.00,VWS V14.01,2013-08-09 03:17:00,
2013-08-08 22:22:00,69.9,61.2,29.94,SE,135,0.0,2.0,74,0.00,,OVC055,0.00,VWS V14.01,2013-08-09 03:22:00,
2013-08-08 22:27:00,70.0,61.7,29.94,SE,136,0.0,2.0,75,0.00,,OVC055,0.00,VWS V14.01,2013-08-09 03:27:00,
2013-08-08 22:32:00,69.9,61.6,29.94,SSE,149,0.0,2.0,75,0.00,,OVC055,0.00,VWS V14.01,2013-08-09 03:32:00,
2013-08-08 22:38:00,69.8,61.9,29.93,SSE,149,0.0,2.0,76,0.00,,OVC055,0.00,VWS V14.01,2013-08-09 03:38:00,
2013-08-08 22:43:00,69.5,62.0,29.94,SSE,149,0.0,2.0,77,0.00,,OVC055,0.00,VWS V14.01,2013-08-09 03:43:00,
2013-08-08 22:48:00,69.2,61.0,29.94,SSE,149,0.0,2.0,75,0.00,,OVC055,0.00,VWS V14.01,2013-08-09 03:48:00,
2013-08-08 22:53:00,69.0,61.5,29.94,SSE,149,0.0,2.0,77,0.00,,OVC055,0.00,VWS V14.01,2013-08-09 03:53:00,
2013-08-08 22:58:00,68.8,62.4,29.94,SSE,149,0.0,2.0,80,0.00,,OVC055,0.00,VWS V14.01,2013-08-09 03:58:00,
2013-08-08 23:01:00,68.7,62.3,29.94,SSE,150,0.0,0.0,80,0.00,,OVC060,0.00,VWS V14.01,2013-08-09 04:01:00,
2013-08-08 23:06:00,68.6,62.2,29.94,SSE,160,0.0,1.0,80,0.00,,OVC060,0.00,VWS V14.01,2013-08-09 04:06:00,
2013-08-08 23:11:00,68.6,62.5,29.94,SE,141,1.0,2.0,81,0.00,,OVC060,0.00,VWS V14.01,2013-08-09 04:11:00,
2013-08-08 23:16:00,68.4,61.3,29.94,SW,217,2.0,2.0,78,0.00,,OVC060,0.00,VWS V14.01,2013-08-09 04:16:00,
2013-08-08 23:21:00,68.5,61.4,29.94,SSW,213,1.0,4.0,78,0.00,,OVC060,0.00,VWS V14.01,2013-08-09 04:21:00,
2013-08-08 23:26:00,68.4,60.9,29.94,SSW,205,4.0,4.0,77,0.00,,OVC060,0.00,VWS V14.01,2013-08-09 04:26:00,
2013-08-08 23:31:00,68.4,60.5,29.94,SSE,156,1.0,2.0,76,0.00,,OVC060,0.00,VWS V14.01,2013-08-09 04:31:00,
2013-08-08 23:36:00,68.3,60.5,29.94,SSW,203,2.0,3.0,76,0.00,,OVC060,0.00,VWS V14.01,2013-08-09 04:36:00,
2013-08-08 23:41:00,68.0,60.5,29.94,SSE,160,2.0,3.0,77,0.00,,OVC060,0.00,VWS V14.01,2013-08-09 04:41:00,
2013-08-08 23:46:00,67.6,60.9,29.94,SSW,209,0.0,3.0,79,0.00,,OVC060,0.00,VWS V14.01,2013-08-09 04:46:00,
2013-08-08 23:51:00,67.2,60.5,29.95,SSW,210,0.0,3.0,79,0.00,,OVC060,0.00,VWS V14.01,2013-08-09 04:51:00,
2013-08-08 23:56:00,67.0,61.0,29.95,SSW,210,0.0,3.0,81,0.00,,OVC060,0.00,VWS V14.01,2013-08-09 04:56:00,